�������l�o���
Date,Time,MP-1(��Sv/h),MP-2(��Sv/h),MP-3(��Sv/h),MP-4(��Sv/h),MP-5(��Sv/h),MP-6(��Sv/h),MP-7(��Sv/h),����,����(m/s),���J
2024/01/07,00:00,0.148,0.135,0.208,0.198,0.207,0.120,0.077,���k��,2.6,��
2024/01/07,00:10,0.148,0.134,0.208,0.199,0.206,0.119,0.077,�k��,2.8,��
2024/01/07,00:20,0.147,0.134,0.209,0.199,0.208,0.119,0.077,���k��,2.6,��
2024/01/07,00:30,0.148,0.134,0.209,0.199,0.206,0.120,0.077,���k��,1.8,��
2024/01/07,00:40,0.147,0.134,0.209,0.199,0.207,0.120,0.077,�k��,4.4,��
2024/01/07,00:50,0.147,0.134,0.210,0.199,0.207,0.120,0.077,�k��,5.2,��
2024/01/07,01:00,0.148,0.134,0.210,0.199,0.207,0.119,0.077,�k�k��,4.3,��
2024/01/07,01:10,0.148,0.134,0.209,0.199,0.207,0.120,0.077,�k�k��,4.1,��
2024/01/07,01:20,0.147,0.134,0.209,0.199,0.208,0.120,0.078,�k�k��,5.3,��
2024/01/07,01:30,0.147,0.135,0.209,0.201,0.207,0.120,0.078,�k�k��,5.8,��
2024/01/07,01:40,0.148,0.135,0.209,0.199,0.207,0.120,0.078,�k�k��,5.2,��
2024/01/07,01:50,0.148,0.134,0.209,0.199,0.208,0.120,0.077,�k�k��,5.2,��
2024/01/07,02:00,0.148,0.134,0.211,0.199,0.207,0.119,0.078,�k�k��,4.9,��
2024/01/07,02:10,0.147,0.135,0.209,0.199,0.207,0.120,0.077,�k�k��,5.8,��
2024/01/07,02:20,0.149,0.134,0.210,0.200,0.208,0.120,0.077,�k,6.1,��
2024/01/07,02:30,0.148,0.134,0.209,0.199,0.208,0.120,0.077,�k,6.4,��
2024/01/07,02:40,0.147,0.133,0.209,0.199,0.208,0.120,0.077,�k,6.6,��
2024/01/07,02:50,0.148,0.135,0.209,0.199,0.207,0.121,0.077,�k,6.6,��
2024/01/07,03:00,0.149,0.134,0.209,0.200,0.207,0.120,0.078,�k�k��,7.4,��
2024/01/07,03:10,0.148,0.134,0.210,0.199,0.207,0.120,0.077,�k�k��,7.5,��
2024/01/07,03:20,0.148,0.134,0.211,0.199,0.207,0.119,0.077,�k�k��,7.3,��
2024/01/07,03:30,0.148,0.134,0.210,0.200,0.207,0.120,0.077,�k�k��,7.0,��
2024/01/07,03:40,0.147,0.134,0.210,0.201,0.207,0.120,0.077,�k�k��,7.3,��
2024/01/07,03:50,0.148,0.135,0.210,0.200,0.207,0.120,0.078,�k,5.6,��
2024/01/07,04:00,0.147,0.136,0.210,0.200,0.206,0.120,0.077,�k�k��,6.0,��
2024/01/07,04:10,0.149,0.135,0.209,0.200,0.207,0.120,0.078,�k,6.2,��
2024/01/07,04:20,0.148,0.134,0.209,0.200,0.207,0.120,0.077,�k�k��,5.1,��
2024/01/07,04:30,0.148,0.134,0.211,0.200,0.207,0.120,0.077,�k,6.7,��
2024/01/07,04:40,0.148,0.135,0.211,0.200,0.206,0.121,0.078,�k�k��,5.1,��
2024/01/07,04:50,0.148,0.134,0.210,0.199,0.207,0.119,0.077,�k,6.1,��
2024/01/07,05:00,0.148,0.135,0.211,0.198,0.207,0.120,0.077,�k,5.6,��
2024/01/07,05:10,0.149,0.133,0.210,0.200,0.207,0.120,0.077,�k,6.1,��
2024/01/07,05:20,0.148,0.136,0.210,0.200,0.208,0.120,0.077,�k,6.3,��
2024/01/07,05:30,0.149,0.135,0.211,0.200,0.207,0.120,0.077,�k�k��,6.3,��
2024/01/07,05:40,0.149,0.135,0.210,0.199,0.208,0.120,0.077,�k,7.0,��
2024/01/07,05:50,0.148,0.135,0.211,0.199,0.207,0.120,0.078,�k,7.3,��
2024/01/07,06:00,0.149,0.135,0.212,0.201,0.208,0.120,0.078,�k,7.2,��
2024/01/07,06:10,0.148,0.134,0.211,0.200,0.207,0.120,0.077,�k,6.6,��
2024/01/07,06:20,0.149,0.134,0.209,0.200,0.209,0.120,0.078,�k,6.5,��
2024/01/07,06:30,0.148,0.135,0.210,0.199,0.208,0.121,0.077,�k,6.0,��
2024/01/07,06:40,0.149,0.135,0.211,0.200,0.207,0.120,0.077,�k,5.2,��
2024/01/07,06:50,0.148,0.135,0.209,0.200,0.207,0.120,0.077,�k,6.6,��
2024/01/07,07:00,0.148,0.134,0.210,0.200,0.207,0.120,0.077,�k�k��,7.4,��
2024/01/07,07:10,0.149,0.135,0.210,0.200,0.207,0.120,0.077,�k�k��,8.3,��
2024/01/07,07:20,0.148,0.135,0.210,0.200,0.208,0.121,0.077,�k�k��,7.8,��
2024/01/07,07:30,0.149,0.135,0.211,0.201,0.207,0.120,0.077,�k�k��,7.0,��
2024/01/07,07:40,0.148,0.135,0.212,0.200,0.209,0.121,0.078,�k�k��,6.6,��
2024/01/07,07:50,0.149,0.134,0.211,0.201,0.208,0.120,0.077,�k�k��,6.3,��
2024/01/07,08:00,0.149,0.135,0.210,0.199,0.209,0.119,0.078,�k,6.3,��
2024/01/07,08:10,0.149,0.135,0.210,0.200,0.208,0.120,0.077,�k�k��,6.0,��
2024/01/07,08:20,0.149,0.136,0.210,0.201,0.207,0.120,0.077,�k,6.0,��
2024/01/07,08:30,0.149,0.135,0.212,0.200,0.209,0.120,0.077,�k,6.2,��
2024/01/07,08:40,0.148,0.135,0.210,0.199,0.209,0.121,0.078,�k�k��,7.3,��
2024/01/07,08:50,0.149,0.134,0.210,0.199,0.208,0.120,0.078,�k�k��,7.3,��
2024/01/07,09:00,0.149,0.134,0.211,0.199,0.209,0.120,0.078,�k,7.7,��
2024/01/07,09:10,0.149,0.134,0.210,0.199,0.207,0.119,0.077,�k��,6.8,��
2024/01/07,09:20,0.149,0.134,0.209,0.200,0.208,0.119,0.077,�k�k��,6.5,��
2024/01/07,09:30,0.148,0.135,0.210,0.200,0.207,0.119,0.077,�k�k��,5.9,��
2024/01/07,09:40,0.149,0.135,0.211,0.200,0.207,0.120,0.077,�k�k��,5.9,��
2024/01/07,09:50,0.149,0.134,0.210,0.199,0.208,0.120,0.077,�k�k��,4.9,��
2024/01/07,10:00,0.149,0.133,0.210,0.200,0.209,0.120,0.077,�k��,5.1,��
2024/01/07,10:10,0.150,0.135,0.211,0.198,0.208,0.121,0.077,�k��,4.7,��
2024/01/07,10:20,0.148,0.134,0.209,0.200,0.208,0.121,0.078,�k�k��,4.5,��
2024/01/07,10:30,0.148,0.133,0.211,0.200,0.208,0.120,0.077,�k�k��,5.6,��
2024/01/07,10:40,0.148,0.135,0.208,0.200,0.207,0.120,0.077,�k�k��,4.0,��
2024/01/07,10:50,0.149,0.135,0.208,0.200,0.207,0.121,0.077,�k��,2.5,��
2024/01/07,11:00,0.148,0.133,0.210,0.199,0.208,0.120,0.077,�k�k��,2.7,��
2024/01/07,11:10,0.149,0.134,0.209,0.200,0.207,0.120,0.078,��,0.8,��
2024/01/07,11:20,0.148,0.135,0.209,0.199,0.209,0.120,0.078,���k��,1.5,��
2024/01/07,11:30,0.148,0.134,0.209,0.199,0.207,0.121,0.077,���k��,2.6,��
2024/01/07,11:40,0.148,0.134,0.209,0.200,0.208,0.120,0.077,�k�k��,3.2,��
2024/01/07,11:50,0.148,0.134,0.211,0.200,0.205,0.120,0.077,�k�k��,3.1,��
2024/01/07,12:00,0.147,0.133,0.210,0.199,0.209,0.121,0.077,�k�k��,3.5,��
2024/01/07,12:10,0.148,0.135,0.210,0.200,0.207,0.120,0.077,���k��,6.7,��
2024/01/07,12:20,0.148,0.134,0.210,0.199,0.207,0.120,0.078,���k��,6.3,��
2024/01/07,12:30,0.148,0.134,0.210,0.201,0.208,0.121,0.078,���k��,6.8,��
2024/01/07,12:40,0.149,0.135,0.210,0.198,0.208,0.121,0.077,�k��,7.8,��
2024/01/07,12:50,0.148,0.135,0.211,0.200,0.208,0.121,0.077,�k��,6.2,��
2024/01/07,13:00,0.149,0.135,0.210,0.201,0.208,0.121,0.077,�k��,6.6,��
2024/01/07,13:10,0.147,0.134,0.211,0.199,0.209,0.120,0.076,�k�k��,6.2,��
2024/01/07,13:20,0.149,0.135,0.212,0.201,0.209,0.120,0.078,�k�k��,8.1,��
2024/01/07,13:30,0.148,0.135,0.210,0.200,0.209,0.120,0.077,�k,6.6,��
2024/01/07,13:40,0.149,0.134,0.211,0.199,0.209,0.121,0.078,�k�k��,4.9,��
2024/01/07,13:50,0.150,0.135,0.211,0.201,0.208,0.121,0.077,�k�k��,7.6,��
2024/01/07,14:00,0.149,0.136,0.212,0.199,0.209,0.120,0.078,�k�k��,7.0,��
2024/01/07,14:10,0.148,0.134,0.212,0.200,0.207,0.120,0.078,�k�k��,6.3,��
2024/01/07,14:20,0.150,0.134,0.212,0.199,0.207,0.121,0.077,�k�k��,7.1,��
2024/01/07,14:30,0.149,0.134,0.212,0.200,0.206,0.121,0.078,�k�k��,7.3,��
2024/01/07,14:40,0.148,0.134,0.212,0.201,0.208,0.120,0.077,�k��,6.8,��
2024/01/07,14:50,0.149,0.136,0.212,0.200,0.208,0.120,0.078,�k�k��,5.9,��
2024/01/07,15:00,0.149,0.135,0.211,0.200,0.208,0.120,0.078,�k�k��,6.2,��
2024/01/07,15:10,0.149,0.135,0.211,0.201,0.208,0.120,0.077,�k�k��,5.7,��
2024/01/07,15:20,0.149,0.135,0.211,0.201,0.209,0.119,0.077,�k�k��,5.5,��
2024/01/07,15:30,0.148,0.136,0.211,0.201,0.207,0.120,0.077,�k�k��,6.3,��
2024/01/07,15:40,0.149,0.135,0.211,0.201,0.208,0.120,0.077,�k�k��,7.1,��
2024/01/07,15:50,0.149,0.135,0.211,0.201,0.208,0.120,0.077,�k�k��,6.4,��
2024/01/07,16:00,0.149,0.135,0.211,0.200,0.209,0.121,0.076,�k�k��,4.2,��
2024/01/07,16:10,0.149,0.135,0.212,0.200,0.208,0.121,0.077,�k�k��,1.5,��
2024/01/07,16:20,0.149,0.133,0.212,0.200,0.207,0.120,0.078,��,1.3,��
2024/01/07,16:30,0.149,0.135,0.210,0.202,0.207,0.121,0.077,�k��,1.5,��
2024/01/07,16:40,0.148,0.135,0.211,0.200,0.207,0.120,0.077,�k�k��,3.4,��
2024/01/07,16:50,0.149,0.135,0.211,0.201,0.208,0.121,0.078,�k�k��,3.9,��
2024/01/07,17:00,0.149,0.134,0.211,0.200,0.207,0.121,0.078,�k�k��,5.0,��
2024/01/07,17:10,0.149,0.135,0.210,0.199,0.208,0.121,0.077,�k�k��,5.1,��
2024/01/07,17:20,0.149,0.135,0.211,0.201,0.207,0.121,0.077,�k�k��,2.6,��
2024/01/07,17:30,0.148,0.135,0.211,0.200,0.208,0.120,0.078,�k�k��,3.3,��
2024/01/07,17:40,0.148,0.135,0.211,0.200,0.208,0.121,0.077,�k��,4.4,��
2024/01/07,17:50,0.149,0.135,0.211,0.201,0.207,0.120,0.078,�k�k��,4.6,��
2024/01/07,18:00,0.149,0.135,0.211,0.200,0.207,0.121,0.077,�k�k��,5.1,��
2024/01/07,18:10,0.149,0.135,0.210,0.201,0.207,0.120,0.078,�k,6.1,��
2024/01/07,18:20,0.149,0.135,0.210,0.200,0.207,0.120,0.078,�k,5.3,��
2024/01/07,18:30,0.148,0.135,0.212,0.200,0.208,0.121,0.077,�k�k��,6.1,��
2024/01/07,18:40,0.148,0.134,0.211,0.200,0.208,0.120,0.077,�k�k��,6.6,��
2024/01/07,18:50,0.150,0.135,0.211,0.201,0.208,0.120,0.077,�k��,6.2,��
2024/01/07,19:00,0.148,0.135,0.210,0.201,0.208,0.121,0.078,�k��,6.5,��
2024/01/07,19:10,0.149,0.135,0.211,0.201,0.209,0.121,0.077,�k��,6.4,��
2024/01/07,19:20,0.149,0.136,0.211,0.200,0.208,0.121,0.077,�k��,6.7,��
2024/01/07,19:30,0.149,0.135,0.210,0.201,0.209,0.121,0.077,�k��,7.5,��
2024/01/07,19:40,0.148,0.136,0.211,0.200,0.208,0.121,0.078,�k��,7.4,�L
2024/01/07,19:50,0.149,0.135,0.210,0.201,0.208,0.121,0.077,�k�k��,5.6,�L
2024/01/07,20:00,0.149,0.135,0.211,0.200,0.209,0.121,0.078,�k,7.5,��
2024/01/07,20:10,0.150,0.134,0.212,0.201,0.210,0.121,0.078,�k��,7.6,�L
2024/01/07,20:20,0.149,0.135,0.211,0.200,0.208,0.121,0.077,�k�k��,8.4,�L
2024/01/07,20:30,0.150,0.136,0.212,0.202,0.209,0.122,0.079,�k�k��,8.4,�L
2024/01/07,20:40,0.154,0.140,0.215,0.205,0.213,0.125,0.082,�k�k��,10.7,�L
2024/01/07,20:50,0.157,0.144,0.219,0.208,0.216,0.129,0.086,�k�k��,9.5,�L
2024/01/07,21:00,0.160,0.147,0.222,0.211,0.218,0.131,0.089,�k��,9.2,�L
2024/01/07,21:10,0.163,0.149,0.225,0.214,0.219,0.135,0.093,�k�k��,8.8,�L
2024/01/07,21:20,0.166,0.152,0.227,0.215,0.221,0.139,0.094,�k�k��,8.9,�L
2024/01/07,21:30,0.168,0.155,0.230,0.217,0.225,0.142,0.097,�k��,8.6,�L
2024/01/07,21:40,0.170,0.157,0.230,0.219,0.225,0.143,0.099,�k��,8.5,�L
2024/01/07,21:50,0.172,0.159,0.231,0.220,0.227,0.145,0.101,�k��,9.0,�L
2024/01/07,22:00,0.173,0.160,0.232,0.222,0.227,0.146,0.102,�k�k��,8.6,�L
2024/01/07,22:10,0.175,0.161,0.233,0.223,0.228,0.149,0.104,�k��,7.9,�L
2024/01/07,22:20,0.176,0.163,0.234,0.225,0.229,0.150,0.106,�k��,7.9,�L
2024/01/07,22:30,0.178,0.164,0.235,0.225,0.230,0.152,0.106,�k�k��,7.0,�L
2024/01/07,22:40,0.176,0.163,0.233,0.222,0.229,0.150,0.106,�k��,6.1,�L
2024/01/07,22:50,0.174,0.160,0.232,0.221,0.227,0.147,0.103,�k��,5.9,�L
2024/01/07,23:00,0.171,0.157,0.228,0.219,0.224,0.144,0.100,�k��,5.0,��
2024/01/07,23:10,0.168,0.154,0.225,0.215,0.220,0.140,0.097,�k��,4.8,��
2024/01/07,23:20,0.164,0.150,0.223,0.211,0.217,0.136,0.093,�k��,6.0,��
2024/01/07,23:30,0.160,0.146,0.219,0.207,0.215,0.134,0.090,�k��,6.8,��
2024/01/07,23:40,0.157,0.143,0.216,0.204,0.213,0.131,0.088,�k��,7.6,��
2024/01/07,23:50,0.155,0.142,0.214,0.203,0.210,0.128,0.086,�k��,8.4,��
